Tracking 30070 objects as of 16-Jan-2025
HD Live streaming from Space Station
objects crossing your sky now

METEOR 2-17 DEB

Track METEOR 2-17 DEB now!
10-day predictions


NORAD ID: 29302
Int'l Code: 1988-005R
Perigee: 861.9 km
Apogee: 896.6 km
Inclination: 82.6 °
Period: 102.4 minutes
Semi major axis: 7250 km
RCS: 0.0088 m2 (small)
Launch date: January 30, 1988
Source: Commonwealth of Independent States (former USSR) (CIS)
Launch site: PLESETSK MISSILE AND SPACE COMPLEX (PKMTR)

Note: This is SATELLITE DEBRIS
Your satellite tracking list
Your tracking list is empty




NASA's NSSDC Master Catalog

Two Line Element Set (TLE):
1 29302U 88005R   25014.17892782  .00002699  00000-0  16256-2 0  9991
2 29302  82.5511 282.2568 0023955 336.5508  23.4570 14.06289651548726
Source of the keplerian elements: AFSPC